Regional Weather Roundup
Issued by NWS

Home | Current Version | Previous Version | Text Only | Print | Product List | Glossary Off
Versions: 1 2 3 4 5 6 7 8 9 10 11 12 13 14 15 16 17 18 19 20 21 22 23 24 25 26 27 28 29 30 31 32 33 34 35 36 37 38 39 40 41 42 43 44 45 46 47 48 49 50

000
ASUS43 KLSX 022159
RWRMO

WEATHER SUMMARY FOR MISSOURI
NATIONAL WEATHER SERVICE SPRINGFIELD MO
400 PM CST MON MAR 02 2015

NOTE: "FAIR" INDICATES FEW OR NO CLOUDS BELOW 12,000 FEET WITH NO
       SIGNIFICANT WEATHER AND/OR OBSTRUCTIONS TO VISIBILITY.
       CURRENT SKY AND/OR WEATHER CONDITIONS ARE NOT AVAILABLE FOR
       CHILLICOTHE AND FARMINGTON.

MOZ001>031-035>038-043-044-053-054-022300-
...NORTHERN AND WESTERN MISSOURI...

CITY           SKY/WX    TMP DP  RH WIND       PRES   REMARKS
KANSAS CTY INT CLOUDY    37  18  46 SE14      30.26F WCI  28
KANSAS C DTWN  CLOUDY    38  17  42 SE15      30.27F WCI  29
LEE`S SUMMIT   CLOUDY    35  20  54 E12       30.27F WCI  27
ST JOSEPH      PTSUNNY   39  20  46 SE17      30.28F WCI  30
CHILLICOTHE      N/A     37  20  50 SE9       30.32F
KIRKSVILLE     PTSUNNY   34  21  59 E12       30.34F WCI  25

$$
MOZ066>068-077>081-088>096-101>105-022300-
...SOUTHWEST MISSOURI...

CITY           SKY/WX    TMP DP  RH WIND       PRES   REMARKS
SPRINGFIELD    CLOUDY    37  21  52 SE14G22   30.27F WCI  28
JOPLIN         CLOUDY    36  23  59 SE12      30.26F WCI  28

$$
MOZ032>034-039>042-045>050-055>058-069>072-022300-
...CENTRAL MISSOURI...

CITY           SKY/WX    TMP DP  RH WIND       PRES   REMARKS
COLUMBIA       PTSUNNY   35  17  47 SE14      30.32F WCI  26
JEFFERSON CITY PTSUNNY   37  18  46 E10       30.34F WCI  30
ROLLA          CLOUDY    35  18  49 E9        30.30F WCI  28
SEDALIA        CLOUDY    35  20  54 E12       30.31F WCI  27
OSAGE BEACH    CLOUDY    37  18  44 E7        30.31S

$$
MOZ051-052-059>065-022300-
...EAST CENTRAL MISSOURI...

CITY           SKY/WX    TMP DP  RH WIND       PRES   REMARKS
ST LOUIS INTL  PTSUNNY   34  18  52 E9        30.40F WCI  27
SPIRIT OF STL  PTSUNNY   34  18  52 E6        30.38F WCI  29
ST CHARLES     PTSUNNY   32  22  66 E10       30.40F WCI  24

$$
MOZ072>076-082>087-097>100-106>115-022300-
...SOUTH CENTRAL AND SOUTHEAST MISSOURI...

CITY           SKY/WX    TMP DP  RH WIND       PRES   REMARKS
CAPE GIRARDEAU MOSUNNY   40  20  44 NE6       30.38F
FARMINGTON     PTSUNNY   36  19  51 E8        30.39F WCI  29
POPLAR BLUFF   CLOUDY    36  19  50 E6        30.38F
WEST PLAINS    CLOUDY    37  19  48 S9        30.33S

$$



USA.gov is the U.S. government's official web portal to all federal, state and local government web resources and services.